Regional Weather Roundup
Issued by NWS Upton, NY

Current Version | Previous Version | Text Only | Print | Product List | Glossary On
Versions: 1 2 3 4 5 6 7 8 9 10 11 12 13 14 15 16 17 18 19 20 21 22 23 24 25 26 27 28 29 30 31 32 33 34 35 36 37 38 39 40 41 42 43 44 45 46 47 48 49 50
000
ASUS41 KOKX 131004
RWROKX

REGIONAL WEATHER ROUNDUP
NATIONAL WEATHER SERVICE NEW YORK NY
500 AM EST SAT FEB 13 2016

NOTE: "FAIR" INDICATES FEW OR NO CLOUDS BELOW 12,000 FEET WITH NO
SIGNIFICANT WEATHER AND/OR OBSTRUCTIONS TO VISIBILITY.

NYZ071-072-176-178-NJZ106-104-131100-
NEW YORK CITY METRO AREA


CITY           SKY/WX    TMP DP  RH WIND       PRES   REMARKS
CENTRAL PARK   CLEAR     21  12  68 W8        29.89R WCI  11
LAGUARDIA APRT PTCLDY    22  12  65 W17G25    29.87S WCI   8
KENNEDY INTL   PTCLDY    23  12  62 W15       29.89S WCI  10
NEWARK/LIBERTY PTCLDY    21  13  71 W13       29.88S WCI   9
BRNX BOT. GARD   N/A     21  14  73 W14       29.86S WCI   8
TETERBORO      CLEAR     19  11  70 CALM      29.88R
$$

NYZ177-179-078>081-131100-
LONG ISLAND NEW YORK

CITY           SKY/WX    TMP DP  RH WIND       PRES   REMARKS
FARMINGDALE    CLEAR     21  11  65 W8        29.87S WCI  11
ISLIP          CLEAR     19  10  68 W6        29.85S WCI  11
SHIRLEY        CLOUDY    20  11  68 W6        29.86S WCI  12
RIVERHEAD        N/A     25   9  50 W7        29.82S WCI  17
WESTHAMPTON    CLOUDY    18  11  74 W9        29.86S WCI   7
EAST HAMPTON   CLOUDY    22  12  64 NW8       29.83S WCI  13
MONTAUK POINT    N/A     23  12  62 NW10      29.84S WCI  12
$$

NYZ052-065-067-131100-
HUDSON VALLEY

CITY           SKY/WX    TMP DP  RH WIND       PRES   REMARKS
WHITE PLAINS   CLEAR     18  12  77 W8        29.82S WCI   8
NEWBURGH       PTCLDY    16  -2  45 W9        29.84R WCI   4
MONTGOMERY     PTCLDY    15  10  80 W5        29.84R WCI   8
POUGHKEEPSIE   CLOUDY    20  12  71 W5        29.85R WCI  13
ALBANY         PTCLDY    18   7  62 W12       29.85R WCI   5
$$

NJZ001-105-106-008-010-013-015-019>022-104-131100-
NEW JERSEY

CITY           SKY/WX    TMP DP  RH WIND       PRES   REMARKS
NEWARK/LIBERTY PTCLDY    21  13  71 W13       29.88S WCI   9
TETERBORO      CLEAR     19  11  70 CALM      29.88R
CALDWELL       CLEAR     19  12  74 VRB5      29.88R WCI  12
MORRISTOWN     CLEAR     19  12  73 W5        29.88R WCI  13
SOMERVILLE     CLEAR     20  13  74 W6        29.89R WCI  12
SUSSEX         MOCLDY    13   9  84 CALM      29.84R
ANDOVER          N/A     15  11  83 CALM      29.86R
TRENTON        CLEAR     20  13  74 W10       29.92R WCI   9
MILLVILLE      CLEAR     21  15  78 W9        29.98R WCI  11
ATLANTIC CITY  CLEAR     20  16  84 W10       29.96R WCI   9
WRIGHTSTOWN    CLEAR     20  20  99 W8        29.90R WCI  10
TOMS RIVER     CLEAR     12   9  85 W7        29.93R WCI   2
BELMAR         CLEAR     19   9  63 W9        29.89R WCI   9
$$

PAZ047>061-062-071-131100-
EASTERN PENNSYLVANIA

CITY           SKY/WX    TMP DP  RH WIND       PRES   REMARKS
PHILADELPHIA   PTCLDY    22  12  65 W15       29.98R WCI   9
ALLENTOWN      MOCLDY    19  10  68 W9        29.92R WCI   8
SCRANTON       LGT SNOW  16   8  71 NW21G32   29.88R WCI  -1
$$

CTZ002-004>006-009-010-012-RIZ004-006-007-MAZ004-011-015-131100-
SOUTHERN NEW ENGLAND
 IN CT

CITY           SKY/WX    TMP DP  RH WIND       PRES   REMARKS
BRADLEY INTL   MOCLDY    16   8  71 SW5       29.82R WCI   9
HARTFORD       FLURRIES  19  10  68 SW3       29.85R
DANBURY        CLEAR     15   8  73 W7        29.83S WCI   5
WTRBRY/OXFORD  CLOUDY    16   1  53 NW3       29.80R
BRIDGEPORT     PTCLDY    20  12  71 W7        29.85S WCI  11
MERIDEN        CLOUDY    17  11  77 CALM      29.84R
NEW HAVEN      CLOUDY    20  11  68 W8        29.84S WCI  10
CHESTER        FLURRIES  19  12  73 NW5       29.82R WCI  13
GROTON         CLOUDY    19  12  74 NW9       29.83S WCI   8
WILLIMANTIC    LGT SNOW  13   8  81 CALM      29.83R

 IN RI

CITY           SKY/WX    TMP DP  RH WIND       PRES   REMARKS
PROVIDENCE     CLOUDY    18  10  71 W6        29.82S WCI  10
BLOCK ISLAND   CLOUDY    21  10  63 NW10      29.80S WCI  10
WESTERLY       CLOUDY    19  11  70 VRB3      29.83S

 IN MA

CITY           SKY/WX    TMP DP  RH WIND       PRES   REMARKS
BOSTON         MOCLDY    21   8  57 W7        29.81S WCI  12
WORCESTER      CLOUDY    12   5  73 W10       29.73R WCI  -1
WESTFIELD      CLOUDY     9   4  80 S3        29.81S
PROVINCETOWN   LGT SNOW  22  17  81 NW8       29.80S WCI  12
NANTUCKET      LGT SNOW  23  18  81 NW13      29.79R WCI  11
$$

ANZ330-335-338-340-345-350-353-355-131100-
COASTAL MARINE OBSERVATIONS


STATION/POSITION TIME  SKY/WX   TEMP    WIND        PRES    VSBY  WAVE
                                AIR SEA DIR/SP/G                  HT/PER
                 (UTC)          (F)     (DEG/KT/KT) (MB)    (MI)  (FT/S)
NY HARB ENTRANCE 0850            24 43  280/ 17/ 25 1011.7          3/ 4
4S FIRE IS       NOT AVBL
20S FIRE ISLAND  0850            26 41  290/ 21/ 27 1011.1          4/ 5
GREAT SOUTH BAY  NOT AVBL
23SW MTP         0950            25 44  290/ 19/ 25 1009.9          4/ 5
HUDSON CANYON    0950            29 48              1010.9          8/ 6
KINGS POINT      0900            22 36  320/ 11/ 17 1011.1
EXECUTION ROCKS  NOT AVBL
CENTRAL LI SOUND 0900            24     290/ 19/ 23   N/A           3/ 4
EASTERN LI SOUND 0900            25 41  290/ 14/ 17   N/A
ROBBINS REEF     0900            21     270/ 14/ 17 1011.0
$$


>>>>>>>>>>>>>>>>>>>>>>>>>>>> KEY <<<<<<<<<<<<<<<<<<<<<<<<<<<
>                                                          <
>     SKY/WX - SKY CONDITION/PRESENT WEATHER               <
>     TMP    - TEMPERATURE IN FAHRENHEIT                   <
>     DP     - DEWPOINT IN FAHRENHEIT                      <
>     RH     - RELATIVE HUMIDITY IN PERCENT                <
>     WIND   - DIRECTION AND SPEED IN MPH                  <
>     PRES   - MEAN SEA LEVEL PRESSURE IN INCHES OF HG     <
>     WCI    - WIND CHILL INDEX                            <
>     VSB    - VISIBILITY IN MILES                         <
>     HX     - HEAT INDEX                                  <
>     TC     - TEMPERATURE IN CELSIUS                      <
>     VRB    - VARIABLE WIND DIRECTION                     <
>                                                          <
>>>>>>>>>>>>>>>>>>>>>>>>>>>> KEY <<<<<<<<<<<<<<<<<<<<<<<<<<<





USA.gov is the U.S. government's official web portal to all federal, state and local government web resources and services.